Location: Akdamlar
(36.8729°N, 30.5187°E)
Time: 15:03:54
(UTC+00:00)

NOSS 3-2 (C) - Pass Details

Date: 18 September 2020
Orbit: 795 x 1418 km, 63.4° (Epoch: 02 October)

Event Time Altitude Azimuth Distance (km) Brightness Sun altitude
Rises 18:48:57 0° 329° (NNW) 4,043 7.6 -32.9°
Reaches altitude 10° 18:51:34 10° 331° (NNW) 3,160 6.8 -33.3°
Enters shadow 18:58:45 71° 24° (NNE) 1,389 4.1 -34.5°
